| time (UTC) | temp F | wind direction | speed MPH | gust MPH | rain 1hr in | rain 24hr in | rain mn in | humidity % | barometer mb |
| 20260504045212 | 49 | 210 | 4.0 | 6.0 | 0.00 | 0.00 | 0.00 | 41 | 992.2 |
| 20260504044311 | 49 | 203 | 2.0 | 5.0 | 0.00 | 0.00 | 0.00 | 41 | 992.6 |
| 20260504043314 | 50 | 202 | 2.0 | 3.0 | 0.00 | 0.00 | 0.00 | 41 | 992.6 |
| 20260504042412 | 50 | 202 | 1.0 | 3.0 | 0.00 | 0.00 | 0.00 | 41 | 992.6 |
| 20260504041411 | 50 | 202 | 1.0 | 2.0 | 0.00 | 0.00 | 0.00 | 41 | 992.6 |
| 20260504040415 | 50 | 202 | 1.0 | 2.0 | 0.00 | 0.00 | 0.00 | 41 | 992.6 |
| 20260504035424 | 51 | 202 | 1.0 | 2.0 | 0.00 | 0.00 | 0.00 | 41 | 992.6 |
| 20260504033524 | 52 | 202 | 2.0 | 3.0 | 0.00 | 0.00 | 0.00 | 43 | 992.6 |
| 20260504032522 | 53 | 225 | 2.0 | 3.0 | 0.00 | 0.00 | 0.00 | 43 | 992.8 |
| 20260504031621 | 53 | 202 | 2.0 | 4.0 | 0.00 | 0.00 | 0.00 | 41 | 992.9 |
| 20260504030623 | 53 | 247 | 1.0 | 2.0 | 0.00 | 0.00 | 0.00 | 41 | 993.2 |
| 20260504025621 | 54 | 247 | 1.0 | 3.0 | 0.00 | 0.00 | 0.00 | 41 | 992.9 |
| 20260504024622 | 53 | 225 | 1.0 | 3.0 | 0.00 | 0.00 | 0.00 | 41 | 993.2 |
| 20260504023623 | 53 | 247 | 1.0 | 3.0 | 0.00 | 0.00 | 0.00 | 41 | 993.2 |
| 20260504022624 | 53 | 270 | 1.0 | 2.0 | 0.00 | 0.00 | 0.00 | 41 | 993.2 |
| 20260504021621 | 54 | 270 | 0.0 | 2.0 | 0.00 | 0.00 | 0.00 | 41 | 993.6 |
| 20260504020622 | 55 | 292 | 0.0 | 0.0 | 0.00 | 0.00 | 0.00 | 41 | 993.6 |
| 20260504015623 | 55 | 247 | 1.0 | 2.0 | 0.00 | 0.00 | 0.00 | 42 | 993.6 |
| 20260504014721 | 54 | 225 | 1.0 | 2.0 | 0.00 | 0.00 | 0.00 | 44 | 993.6 |
| 20260504013723 | 55 | 292 | 0.0 | 0.0 | 0.00 | 0.00 | 0.00 | 45 | 993.6 |
| 20260504011725 | 55 | 284 | 1.0 | 4.0 | 0.00 | 0.00 | 0.00 | 45 | 993.6 |
| 20260504010722 | 55 | 252 | 4.0 | 6.0 | 0.00 | 0.00 | 0.00 | 45 | 993.9 |
| 20260504005722 | 55 | 255 | 4.0 | 9.0 | 0.00 | 0.00 | 0.00 | 45 | 993.6 |
| 20260504004721 | 56 | 254 | 6.0 | 9.0 | 0.00 | 0.00 | 0.00 | 45 | 993.6 |
| 20260504003722 | 56 | 292 | 5.0 | 11.0 | 0.00 | 0.00 | 0.00 | 45 | 993.6 |
| 20260504001822 | 56 | 269 | 4.0 | 12.0 | 0.00 | 0.00 | 0.00 | 46 | 993.2 |
| 20260504000822 | 56 | 285 | 2.0 | 7.0 | 0.00 | 0.00 | 0.00 | 45 | 992.9 |
| 20260503235823 | 56 | 287 | 2.0 | 7.0 | 0.00 | 0.00 | 0.00 | 45 | 992.9 |
| 20260503233823 | 56 | 238 | 4.0 | 9.0 | 0.00 | 0.00 | 0.00 | 45 | 992.9 |
| 20260503230922 | 57 | 264 | 6.0 | 11.0 | 0.00 | 0.00 | 0.00 | 45 | 993.2 |
| 20260503230021 | 57 | 309 | 1.0 | 11.0 | 0.00 | 0.00 | 0.00 | 43 | 993.0 |
| 20260503225023 | 57 | 270 | 6.0 | 17.0 | 0.00 | 0.00 | 0.00 | 42 | 993.0 |
| 20260503224022 | 57 | 317 | 0.0 | 4.0 | 0.00 | 0.00 | 0.00 | 42 | 992.7 |
| 20260503221122 | 58 | 247 | 3.0 | 7.0 | 0.00 | 0.00 | 0.00 | 42 | 992.6 |
| 20260503220125 | 58 | 271 | 3.0 | 7.0 | 0.00 | 0.00 | 0.00 | 42 | 992.9 |
| 20260503215123 | 57 | 279 | 2.0 | 4.0 | 0.00 | 0.00 | 0.00 | 42 | 992.9 |
| 20260503213222 | 58 | 257 | 5.0 | 7.0 | 0.00 | 0.00 | 0.00 | 43 | 992.9 |
| 20260503212221 | 58 | 261 | 5.0 | 11.0 | 0.00 | 0.00 | 0.00 | 45 | 992.9 |
| 20260503210222 | 57 | 260 | 2.0 | 5.0 | 0.00 | 0.00 | 0.00 | 44 | 992.9 |
| 20260503205223 | 56 | 254 | 2.0 | 4.0 | 0.00 | 0.00 | 0.00 | 44 | 993.2 |
| 20260503204222 | 56 | 247 | 1.0 | 3.0 | 0.00 | 0.00 | 0.00 | 44 | 993.2 |
| 20260503203321 | 56 | 259 | 4.0 | 7.0 | 0.00 | 0.00 | 0.00 | 43 | 993.2 |
| 20260503202322 | 56 | 267 | 5.0 | 9.0 | 0.00 | 0.00 | 0.00 | 43 | 993.2 |
| 20260503200321 | 55 | 285 | 1.0 | 4.0 | 0.00 | 0.00 | 0.00 | 42 | 993.9 |
| 20260503195321 | 55 | 261 | 4.0 | 6.0 | 0.00 | 0.00 | 0.00 | 42 | 993.9 |
| 20260503193421 | 55 | 260 | 5.0 | 8.0 | 0.00 | 0.00 | 0.00 | 42 | 994.3 |
| 20260503191423 | 57 | 253 | 8.0 | 11.0 | 0.00 | 0.00 | 0.00 | 44 | 994.6 |
| 20260503190521 | 56 | 265 | 7.0 | 11.0 | 0.00 | 0.00 | 0.00 | 42 | 994.6 |
| 20260503184522 | 56 | 317 | 0.0 | 0.0 | 0.00 | 0.00 | 0.00 | 42 | 994.6 |
| 20260503183521 | 56 | 273 | 4.0 | 10.0 | 0.00 | 0.00 | 0.00 | 42 | 994.6 |
| 20260503182521 | 55 | 290 | 2.0 | 8.0 | 0.00 | 0.00 | 0.00 | 41 | 994.6 |
| 20260503181524 | 56 | 310 | 1.0 | 6.0 | 0.00 | 0.00 | 0.00 | 42 | 994.6 |
| 20260503180523 | 56 | 274 | 3.0 | 12.0 | 0.00 | 0.00 | 0.00 | 42 | 994.6 |
| 20260503175523 | 56 | 331 | 0.0 | 0.0 | 0.00 | 0.00 | 0.00 | 42 | 994.6 |
| 20260503172624 | 54 | 322 | 0.0 | 2.0 | 0.00 | 0.00 | 0.00 | 43 | 994.9 |
| 20260503170723 | 53 | 41 | 0.0 | 3.0 | 0.00 | 0.00 | 0.00 | 45 | 994.9 |
| 20260503150823 | 51 | 313 | 0.0 | 2.0 | 0.00 | 0.00 | 0.00 | 41 | 996.3 |
| 20260503131023 | 46 | 292 | 3.0 | 11.0 | 0.00 | 0.00 | 0.00 | 42 | 996.7 |
| 20260503120123 | 42 | 276 | 2.0 | 4.0 | 0.00 | 0.00 | 0.00 | 51 | 996.3 |
| 20260503110220 | 38 | 260 | 4.0 | 6.0 | 0.00 | 0.00 | 0.00 | 50 | 995.3 |
| 20260503080923 | 39 | 247 | 1.0 | 2.0 | 0.00 | 0.00 | 0.00 | 50 | 995.3 |
| 20260503071224 | 39 | 292 | 0.0 | 0.0 | 0.00 | 0.00 | 0.00 | 50 | 995.3 |
| 20260503060322 | 39 | 315 | 0.0 | 0.0 | 0.00 | 0.00 | 0.00 | 50 | 995.3 |
| 20260503054422 | 39 | 337 | 0.0 | 0.0 | 0.00 | 0.00 | 0.00 | 50 | 995.7 |
| 20260503053421 | 39 | 337 | 0.0 | 0.0 | 0.00 | 0.00 | 0.00 | 50 | 995.7 |
| 20260503052423 | 39 | 337 | 0.0 | 0.0 | 0.00 | 0.00 | 0.00 | 50 | 995.7 |
| 20260503051421 | 39 | 270 | 0.0 | 0.0 | 0.00 | 0.00 | 0.00 | 50 | 995.9 |
| 20260503050422 | 39 | 270 | 0.0 | 0.0 | 0.00 | 0.00 | 0.00 | 50 | 996.0 |
| 20260503045421 | 39 | 270 | 0.0 | 0.0 | 0.00 | 0.00 | 0.00 | 50 | 996.0 |